Tracking 28790 objects as of 19-Apr-2024
HD Live streaming from Space Station
objects crossing your sky now

COSMOS 2251 DEB

Track COSMOS 2251 DEB now!
10-day predictions


NORAD ID: 34555
Int'l Code: 1993-036UR
Perigee: 612.8 km
Apogee: 642.2 km
Inclination: 74.0 °
Period: 97.1 minutes
Semi major axis: 6998 km
RCS: 0.037 m2 (small)
Launch date: June 16, 1993
Source: Commonwealth of Independent States (former USSR) (CIS)
Launch site: PLESETSK MISSILE AND SPACE COMPLEX (PKMTR)

Note: This is SATELLITE DEBRIS
Your satellite tracking list
Your tracking list is empty




NASA's NSSDC Master Catalog

Two Line Element Set (TLE):
1 34555U 93036UR  24109.34924308  .00075787  00000-0  92282-2 0  9991
2 34555  74.0149  95.8830 0021002 280.3334 201.2725 14.82828894798995
Source of the keplerian elements: AFSPC